User: anonymous   Login
Location: Luxembourg
(49.6117°N, 6.1300°E)
Time: 05:16:33
(UTC+01:00)
Language:

AO-7 - Orbit

View from above orbital plane
View from above orbital plane
View from above satellite
View from above satellite

Ground track
Ground track

The orbit data is extracted from the following two-line orbital elements,

1  7530U 74089B   19320.13217774 -.00000042  00000-0  21968-4 0  9997
2  7530 101.7672 286.3624 0012514  57.0842   5.2112 12.53640772 59373
Epoch (UTC): 16 November 2019 03:10:20
Eccentricity: 0.0012514
inclination: 101.7672°
perigee height: 1439 km
apogee height: 1459 km
right ascension of ascending node: 286.3624°
argument of perigee: 57.0842°
revolutions per day: 12.53640772
mean anomaly at epoch: 5.2112°
orbit number at epoch: 5937

The dashed part of the orbit path shows where the satellite is in the earth's shadow,  

DLR